This demonstration page uses our WeatherBlox Daily Observations layout. Learn more.

Left ArrowRight Arrow

53.62937, 11.41316

Hourly Observations for March 20, 2016

Temp ( °F °C ) Dew Point ( °F °C ) Humidity (%) Winds ( mph kmh ) Pressure ( in mb ) Visibility ( mi km ) Precip ( " mm )
5:20 am 05:20 Cloudy 41 5 34 1 76 76 WNW 13 20 29.91 1013 30 48 N/A
6:20 am 06:20 Cloudy 41 5 36 2 81 81 W 12 19 29.91 1013 30 48 N/A
6:50 am 06:50 Cloudy 41 5 36 2 81 81 W 12 19 29.88 1012 30 48 N/A
7:20 am 07:20 Cloudy 41 5 36 2 81 81 W 12 19 29.88 1012 30 48 N/A
7:50 am 07:50 Cloudy 41 5 36 2 81 81 W 13 20 29.91 1013 30 48 N/A
8:20 am 08:20 Cloudy 43 6 36 2 76 76 W 12 19 29.91 1013 30 48 N/A
8:50 am 08:50 Cloudy 43 6 34 1 71 71 W 13 20 29.91 1013 30 48 N/A
9:20 am 09:20 Cloudy 43 6 34 1 71 71 W 14 22 29.91 1013 30 48 N/A
10:20 am 10:20 Cloudy 45 7 36 2 71 71 WNW 10 17 29.88 1012 30 48 N/A
10:50 am 10:50 Mostly Cloudy 46 8 37 3 71 71 W 16 26 29.88 1012 30 48 N/A
11:20 am 11:20 Cloudy with Drizzle 45 7 39 4 81 81 W 12 19 29.91 1013 4 7 N/A
11:50 am 11:50 Cloudy 45 7 39 4 81 81 W 13 20 29.88 1012 30 48 N/A
12:20 pm 12:20 Mostly Cloudy 45 7 39 4 81 81 W 12 19 29.88 1012 30 48 N/A
12:50 pm 12:50 Mostly Cloudy 45 7 39 4 81 81 WNW 13 20 29.88 1012 30 48 N/A
1:20 pm 13:20 Mostly Cloudy 45 7 39 4 81 81 WNW 13 20 29.88 1012 30 48 N/A
1:50 pm 13:50 Mostly Cloudy 45 7 39 4 81 81 WNW 10 17 29.88 1012 30 48 N/A
2:20 pm 14:20 Mostly Cloudy 46 8 39 4 76 76 WNW 9 15 29.88 1012 30 48 N/A
3:20 pm 15:20 Mostly Cloudy 46 8 39 4 76 76 W 10 17 29.88 1012 30 48 N/A
3:50 pm 15:50 Cloudy 45 7 37 3 76 76 W 9 15 29.88 1012 30 48 N/A
4:20 pm 16:20 Cloudy with Drizzle 45 7 37 3 76 76 NW 7 11 29.88 1012 30 48 N/A
4:50 pm 16:50 Mostly Cloudy 43 6 37 3 81 81 NW 5 7 29.88 1012 30 48 N/A
5:20 pm 17:20 Mostly Cloudy with Drizzle 45 7 37 3 76 76 NW 6 9 29.88 1012 30 48 N/A
5:50 pm 17:50 Mostly Cloudy 43 6 39 4 87 87 W 7 11 29.88 1012 30 48 N/A

Powered by AerisWeather